Weather History for CYVR - January, 2014

Change the Weather History Date:

Tuesday, January 7, 2014

  Actual Average Record
Temperature  
Mean Temperature 38 °F -  
Max Temperature 44 °F 40 °F 55 °F (2002)
Min Temperature 31 °F 32 °F 28 °F (2001)
Degree Days  
Heating Degree Days 28    
Moisture  
Dew Point 40 °F    
Average Humidity 95    
Maximum Humidity 100    
Minimum Humidity 81    
Precipitation  
Precipitation 0.28 in - - ()
Sea Level Pressure  
Sea Level Pressure 30.04 in    
Wind  
Wind Speed 7 mph ()    
Max Wind Speed 13 mph    
Max Gust Speed -    
Visibility 7.8 miles    
Events Rain    
Averages and records for this station are not official NWS values.
T = Trace of Precipitation, MM = Missing Value Source: Averaged Metar Reports

Daily Weather History Graph

Daily Weather History Graph

Search for Another Location

Airport or City:

Trip Planner

Search our weather history database for the weather conditions in past years. The results will help you decide how hot, cold, wet, or windy it might be!

Date:

Astronomy

Jan. 07, 2014 Rise Set
Actual Time 8:06 AM PST 4:32 PM PST
Civil Twilight 7:29 AM PST 5:09 PM PST
Nautical Twilight 6:49 AM PST 5:49 PM PST
Astronomical Twilight 6:10 AM PST 6:27 PM PST
Moon 11:17 AM PST (1/7) No Moon Set
Length of Visible Light 9h 39m
Length of Day
8h 25m
Waxing Crescent, 46% of the Moon is Illuminated
Jan 7
Waxing Crescent
Jan 7
First Quarter
Jan 15
Full
Jan 23
Last Quarter
Jan 30
New

Hourly Weather History & Observations

Time (PST) Temp. Windchill Dew Point Humidity Pressure Visibility Wind Dir Wind Speed Gust Speed Precip Events Conditions
12:00 AM 35.6 °F 29.9 °F 32.0 °F 87% 30.14 in 15.0 mi East 6.9 mph - N/A   Overcast
1:00 AM 37.4 °F 31.4 °F 32.0 °F 81% 30.13 in 15.0 mi ENE 8.1 mph - N/A   Overcast
2:00 AM 37.4 °F 32.1 °F 33.8 °F 87% 30.12 in 15.0 mi ESE 6.9 mph - N/A   Overcast
2:20 AM 37.4 °F 31.4 °F 33.8 °F 87% 30.12 in 15.0 mi East 8.1 mph - N/A Rain Light Rain
3:00 AM 37.4 °F 31.4 °F 33.8 °F 87% 30.13 in 15.0 mi ESE 8.1 mph - N/A Rain Light Rain
4:00 AM 37 °F - 35 °F 92% 30.12 in 12 mi ESE 5.8 mph - - Rain Light Rain
4:00 AM 37.4 °F 32.8 °F 35.6 °F 93% 30.12 in 12.0 mi ESE 5.8 mph - N/A Rain Light Rain
5:00 AM 37.4 °F 32.8 °F 35.6 °F 93% 30.10 in 10.0 mi East 5.8 mph - N/A Rain Light Rain
6:00 AM 39.2 °F 37.0 °F 37.4 °F 93% 30.08 in 10.0 mi NNE 3.5 mph - N/A Rain Light Rain
7:00 AM 39.2 °F - 37.4 °F 93% 30.06 in 10.0 mi Variable 2.3 mph - N/A Rain Light Rain
8:00 AM 39.2 °F 35.9 °F 37.4 °F 93% 30.05 in 6.0 mi East 4.6 mph - N/A Rain Light Rain
8:28 AM 39.2 °F 34.2 °F 37.4 °F 93% 30.06 in 8.0 mi East 6.9 mph - N/A Rain Light Rain
9:00 AM 39.2 °F 33.6 °F 39.2 °F 100% 30.05 in 8.0 mi East 8.1 mph - N/A Rain Light Rain
9:56 AM 39.2 °F 33.6 °F 39.2 °F 100% 30.04 in 15.0 mi East 8.1 mph - N/A   Overcast
10:00 AM 40 °F - 39 °F 93% 30.05 in 15 mi East 8.1 mph - - Rain Light Rain
10:00 AM 39.2 °F 33.6 °F 39.2 °F 100% 30.04 in 15.0 mi East 8.1 mph - N/A   Overcast
10:19 AM 39.2 °F 33.0 °F 39.2 °F 100% 30.04 in 15.0 mi East 9.2 mph - N/A Rain Light Rain
10:50 AM 39.2 °F 33.6 °F 39.2 °F 100% 30.04 in 6.0 mi East 8.1 mph - N/A   Light Drizzle
11:00 AM 41.0 °F 35.8 °F 39.2 °F 93% 30.04 in 5.0 mi East 8.1 mph - N/A   Light Drizzle
11:15 AM 41.0 °F 35.2 °F 39.2 °F 93% 30.04 in 2.5 mi East 9.2 mph - N/A   Light Drizzle
11:38 AM 41.0 °F 35.2 °F 39.2 °F 93% 30.03 in 3.0 mi East 9.2 mph - N/A   Light Drizzle
12:00 PM 41.0 °F 35.8 °F 41.0 °F 100% 30.02 in 5.0 mi East 8.1 mph - N/A   Light Drizzle
12:14 PM 41.0 °F 36.4 °F 41.0 °F 100% 30.02 in 7.0 mi ESE 6.9 mph - N/A   Light Drizzle
12:28 PM 41.0 °F 36.4 °F 41.0 °F 100% 30.01 in 5.0 mi East 6.9 mph - N/A   Light Drizzle
12:39 PM 41.0 °F 36.4 °F 41.0 °F 100% 30.01 in 6.0 mi East 6.9 mph - N/A   Light Drizzle
1:00 PM 41.0 °F 36.4 °F 41.0 °F 100% 30.01 in 6.0 mi ESE 6.9 mph - N/A   Overcast
1:25 PM 41.0 °F 35.8 °F 41.0 °F 100% 30.00 in 4.0 mi East 8.1 mph - N/A   Light Drizzle
1:38 PM 41.0 °F 33.9 °F 41.0 °F 100% 30.00 in 2.5 mi East 12.7 mph - N/A   Light Drizzle
2:00 PM 42.8 °F 38.0 °F 41.0 °F 93% 30.00 in 4.0 mi East 8.1 mph - N/A   Light Drizzle
3:00 PM 42.8 °F 38.0 °F 41.0 °F 93% 30.00 in 6.0 mi East 8.1 mph - N/A   Light Drizzle
3:24 PM 42.8 °F 38.0 °F 42.8 °F 100% 30.00 in 5.0 mi East 8.1 mph - N/A   Light Drizzle
3:53 PM 42.8 °F 38.6 °F 41.0 °F 93% 30.00 in 2.5 mi East 6.9 mph - N/A   Light Drizzle
4:00 PM 42 °F - 42 °F 99% 30.01 in 2 mi East 5.8 mph - - Rain Light Drizzle
4:00 PM 42.8 °F 39.3 °F 41.0 °F 93% 30.00 in 2.0 mi East 5.8 mph - N/A   Light Drizzle
4:48 PM 42.8 °F 37.0 °F 42.8 °F 100% 30.00 in 3.0 mi ENE 10.4 mph - N/A   Light Drizzle
5:00 PM 42.8 °F 37.0 °F 42.8 °F 100% 30.00 in 7.0 mi ENE 10.4 mph - N/A   Light Drizzle
5:13 PM 44.6 °F 41.4 °F 42.8 °F 93% 29.99 in 8.0 mi NE 5.8 mph - N/A Rain Light Rain
6:00 PM 44.6 °F 40.2 °F 42.8 °F 93% 29.99 in 12.0 mi East 8.1 mph - N/A   Light Drizzle
7:00 PM 44.6 °F 39.7 °F 42.8 °F 93% 30.00 in 6.0 mi ENE 9.2 mph - N/A   Light Drizzle
7:46 PM 44.6 °F 39.2 °F 42.8 °F 93% 30.00 in 4.0 mi ENE 10.4 mph - N/A   Light Drizzle
8:00 PM 44.6 °F 40.2 °F 42.8 °F 93% 30.00 in 4.0 mi ENE 8.1 mph - N/A   Light Drizzle
9:00 PM 44.6 °F 39.7 °F 42.8 °F 93% 30.00 in 6.0 mi ENE 9.2 mph - N/A   Light Drizzle
10:00 PM 44 °F - 42 °F 92% 30.01 in 6 mi East 5.8 mph - - Rain Light Drizzle
10:00 PM 42.8 °F 39.3 °F 42.8 °F 100% 30.01 in 6.0 mi East 5.8 mph - N/A   Light Drizzle
11:00 PM 44.6 °F 40.7 °F 42.8 °F 93% 30.01 in 4.0 mi East 6.9 mph - N/A   Light Drizzle